Ponca City, OK

7:23 PM CDT on April 24, 2017 (GMT -0500)
Ponca City Municipal

Weather History for KPNC - February, 2014

Change the Weather History Date:

Thursday, February 27, 2014

  Actual Average Record
Temperature  
Mean Temperature 30 °F -  
Max Temperature 53 °F 59 °F 75 °F (2011)
Min Temperature 8 °F 36 °F 8 °F (2002)
Degree Days  
Heating Degree Days 34    
Moisture  
Dew Point 11 °F    
Average Humidity 44    
Maximum Humidity 80    
Minimum Humidity 16    
Precipitation  
Precipitation 0.00 in - - ()
Sea Level Pressure  
Sea Level Pressure 29.99 in    
Wind  
Wind Speed 6 mph (ESE)    
Max Wind Speed 14 mph    
Max Gust Speed 20 mph    
Visibility 10 miles    
Events      
Averages and records for this station are not official NWS values.
T = Trace of Precipitation, MM = Missing Value Source: NWS Daily Summary

Daily Weather History Graph

Daily Weather History Graph

Search for Another Location

Airport or City:

Trip Planner

Search our weather history database for the weather conditions in past years. The results will help you decide how hot, cold, wet, or windy it might be!

Date:

Astronomy

Feb. 27, 2014 Rise Set
Actual Time 7:01 AM CST 6:20 PM CST
Civil Twilight 6:35 AM CST 6:46 PM CST
Nautical Twilight 6:05 AM CST 7:17 PM CST
Astronomical Twilight 5:35 AM CST 7:46 PM CST
Moon 5:33 AM CST (2/27) 4:49 PM CST (2/27)
Length of Visible Light 12h 11m
Length of Day
11h 19m
Waning Crescent, 4% of the Moon is Illuminated
Feb 27
Waning Crescent
Mar 1
New
Mar 8
First Quarter
Mar 16
Full
Mar 23
Last Quarter

Hourly Weather History & Observations

Time (CST) Temp. Windchill Dew Point Humidity Pressure Visibility Wind Dir Wind Speed Gust Speed Precip Events Conditions
12:53 AM 21.0 °F 16.2 °F 10.0 °F 63% 30.11 in 10.0 mi SW 3.5 mph - N/A   Clear
1:53 AM 23.0 °F 15.8 °F 12.0 °F 63% 30.11 in 10.0 mi SSW 5.8 mph - N/A   Clear
2:53 AM 18.0 °F - 10.0 °F 71% 30.10 in 10.0 mi Calm Calm - N/A   Clear
3:53 AM 14.0 °F - 8.1 °F 77% 30.09 in 10.0 mi Calm Calm - N/A   Clear
4:53 AM 12.9 °F - 7.0 °F 77% 30.10 in 10.0 mi Calm Calm - N/A   Clear
5:53 AM 14.0 °F - 7.0 °F 74% 30.11 in 10.0 mi Calm Calm - N/A   Clear
6:53 AM 8.1 °F 1.4 °F 3.0 °F 80% 30.12 in 10.0 mi NNE 3.5 mph - N/A   Clear
7:53 AM 18.0 °F 8.7 °F 12.0 °F 78% 30.11 in 10.0 mi NNE 6.9 mph - N/A   Clear
8:53 AM 28.9 °F 22.8 °F 17.1 °F 61% 30.12 in 10.0 mi North 5.8 mph - N/A   Clear
9:53 AM 36.0 °F 29.0 °F 15.1 °F 43% 30.10 in 10.0 mi ENE 9.2 mph - N/A   Clear
10:53 AM 41.0 °F 33.5 °F 14.0 °F 33% 30.09 in 10.0 mi ESE 13.8 mph 17.3 mph N/A   Clear
11:53 AM 45.0 °F 38.5 °F 12.0 °F 26% 30.05 in 10.0 mi ESE 13.8 mph - N/A   Clear
12:53 PM 48.0 °F - 9.0 °F 21% 30.02 in 10.0 mi SE 11.5 mph 17.3 mph N/A   Clear
1:53 PM 50.0 °F - 7.0 °F 18% 29.96 in 10.0 mi SSE 9.2 mph 17.3 mph N/A   Clear
2:53 PM 51.1 °F - 7.0 °F 17% 29.93 in 10.0 mi SSE 11.5 mph 19.6 mph N/A   Clear
3:53 PM 53.1 °F - 7.0 °F 16% 29.89 in 10.0 mi SE 11.5 mph - N/A   Clear
4:53 PM 52.0 °F - 10.0 °F 19% 29.87 in 10.0 mi South 9.2 mph 18.4 mph N/A   Clear
5:53 PM 50.0 °F - 10.9 °F 21% 29.86 in 10.0 mi SE 8.1 mph - N/A   Clear
6:53 PM 45.0 °F 41.2 °F 10.9 °F 25% 29.87 in 10.0 mi East 6.9 mph - N/A   Clear
7:53 PM 43.0 °F 37.2 °F 14.0 °F 31% 29.86 in 10.0 mi ESE 10.4 mph - N/A   Clear
8:53 PM 41.0 °F 34.3 °F 14.0 °F 33% 29.84 in 10.0 mi ESE 11.5 mph - N/A   Clear
9:53 PM 39.0 °F 31.4 °F 15.1 °F 38% 29.83 in 10.0 mi ESE 12.7 mph - N/A   Clear
10:53 PM 39.9 °F 32.9 °F 16.0 °F 38% 29.82 in 10.0 mi SE 11.5 mph - N/A   Clear
11:53 PM 37.9 °F 30.5 °F 17.1 °F 43% 29.80 in 10.0 mi SE 11.5 mph - N/A   Clear